GFSCGP_sfc_wetblb_102.txt.gz
Wetbulb
45.23 39.87 36.56 40.55 41.59 42.22 41.33 39.62 39.24 42.33 44.96 42.77 42.26 42.83 45.10 46.34 45.90 46.00 46.73 47.61 48.16 49.21 51.65 52.68 54.26 57.67 57.94 57.95 57.80 57.60 58.93 59.74 59.19 58.35 57.56 58.12 62.54 68.91 70.78 71.43 71.56 70.94 69.75 69.91
40.10 37.25 42.97 44.87 44.89 43.63 42.13 39.70 39.02 42.07 44.38 42.42 40.47 41.32 42.94 44.33 44.50 45.27 46.33 46.60 47.87 48.42 49.88 53.24 55.02 54.87 55.25 55.26 55.29 55.94 56.58 56.05 57.79 59.16 59.71 60.58 61.72 62.13 65.69 68.93 70.42 72.22 70.28 69.99
37.59 41.93 46.43 45.11 43.18 42.07 41.30 39.49 39.23 40.02 43.53 42.27 40.65 38.36 40.81 44.68 46.00 46.70 46.75 47.93 48.62 49.13 49.13 52.48 52.57 52.21 53.68 54.08 54.54 56.32 55.93 56.13 57.27 58.50 57.44 56.98 57.01 57.09 57.69 59.78 65.03 68.65 71.88 70.26
39.97 44.98 44.53 43.86 43.04 43.35 37.62 43.40 43.33 42.28 39.34 33.04 40.49 30.60 36.71 41.94 44.05 45.47 46.68 45.95 46.55 48.48 49.84 52.49 51.36 50.69 52.08 53.09 53.68 52.75 56.80 57.93 57.31 57.14 56.88 56.86 56.31 55.91 57.43 58.24 59.92 60.29 62.30 66.72
40.51 41.75 41.76 41.01 42.48 43.95 41.11 44.79 42.65 42.27 37.84 34.27 36.29 31.92 35.84 40.61 41.26 43.55 45.42 47.79 48.37 47.42 50.77 50.10 50.23 51.22 51.68 51.44 51.84 55.35 56.98 55.17 55.82 57.03 58.11 56.40 55.51 56.42 56.86 57.62 58.73 59.17 59.53 60.54
42.62 46.55 44.47 42.95 45.65 44.86 45.84 41.73 39.11 36.91 34.41 28.67 34.28 34.14 32.92 38.06 40.86 43.38 47.15 47.12 48.35 47.33 48.95 49.27 50.03 50.45 49.87 50.98 51.35 52.92 53.65 54.71 55.69 57.84 55.07 54.96 54.52 54.52 55.50 57.20 57.11 58.40 60.07 61.13
41.66 41.66 45.30 46.90 41.66 42.90 41.55 34.10 27.18 26.08 26.07 26.67 36.83 34.26 34.59 41.87 46.22 47.47 45.83 45.93 46.45 47.06 47.29 47.66 47.94 48.56 48.65 48.64 49.23 51.70 50.72 51.30 52.41 53.70 55.80 55.70 55.37 55.93 55.95 56.28 57.26 57.51 58.49 59.72
34.72 33.48 43.17 47.30 43.57 39.22 38.17 35.31 27.92 23.31 24.07 28.38 38.10 32.59 38.26 46.85 48.25 47.99 48.89 47.59 47.96 46.64 46.73 47.21 48.10 48.09 48.33 48.94 48.93 51.32 51.04 51.23 51.82 52.36 53.47 54.73 54.46 55.52 57.31 57.04 57.84 58.17 57.42 57.90
34.50 37.23 46.09 48.35 47.44 44.78 41.10 36.76 38.83 32.80 32.79 28.92 32.43 37.23 42.56 46.43 47.38 48.06 47.51 46.19 46.48 47.54 47.81 48.04 47.67 47.30 47.43 47.59 48.77 50.55 50.35 51.37 50.63 51.21 52.18 53.69 57.25 56.34 54.53 55.47 57.59 56.76 57.67 59.66
40.49 34.95 44.27 46.80 47.98 47.22 43.14 45.31 35.94 32.54 25.44 24.06 31.21 33.93 35.43 42.37 43.69 45.95 45.91 45.52 45.99 45.39 46.23 47.36 47.60 46.98 47.54 47.54 48.46 48.24 50.19 49.83 49.57 52.71 55.24 55.91 55.02 54.81 54.44 56.05 55.77 56.29 57.01 58.44
40.28 36.67 37.96 42.38 39.95 38.81 41.61 37.94 38.58 36.21 32.90 26.10 25.28 30.39 42.62 44.58 45.50 45.14 46.02 47.78 47.96 46.38 46.71 46.45 46.24 45.88 45.89 46.25 46.93 48.12 48.52 50.21 51.37 53.36 52.69 52.76 53.03 54.50 55.88 55.90 56.96 54.65 55.50 55.96
41.43 36.85 32.37 36.68 41.85 43.82 39.80 38.61 39.25 34.93 31.68 30.80 28.06 30.14 45.11 46.06 45.41 44.77 45.55 46.94 46.99 46.18 45.52 45.79 46.43 47.53 47.74 47.60 48.16 48.54 48.66 48.74 49.09 49.93 51.10 52.52 52.69 53.84 55.06 55.84 56.06 54.48 54.28 54.63
40.30 35.19 30.00 32.43 37.00 41.51 39.05 42.32 42.51 41.76 40.49 35.98 31.95 33.31 44.59 45.65 44.03 43.72 42.13 43.31 44.22 44.86 44.88 44.60 44.99 45.40 46.31 46.62 47.00 47.01 47.41 47.84 48.72 48.82 48.44 48.46 49.01 50.22 52.22 54.14 54.59 53.83 53.93 53.38
43.87 35.83 33.52 28.78 33.49 36.85 36.29 38.92 41.33 39.41 34.53 36.07 36.24 35.79 41.33 42.43 40.39 41.37 41.72 42.69 42.47 42.73 44.03 44.49 44.03 43.97 44.56 45.81 46.40 46.73 46.20 46.51 46.75 47.08 46.39 45.91 46.41 47.80 49.65 51.97 53.48 54.67 54.59 53.75
37.99 32.42 35.03 36.44 38.83 39.22 37.59 36.78 37.17 36.11 37.88 33.83 35.70 36.89 40.44 38.80 39.31 39.89 41.47 42.26 42.55 42.32 43.10 43.09 42.98 42.96 43.69 44.73 45.65 46.54 46.22 46.28 46.05 46.69 46.66 46.28 46.73 47.37 48.09 49.85 51.17 53.62 55.35 54.24
38.13 31.04 34.51 33.72 38.19 37.54 34.96 37.79 38.12 38.09 37.96 37.21 38.01 37.74 41.71 43.29 39.93 40.56 40.28 41.40 40.52 41.28 42.28 43.17 44.31 44.34 44.27 44.53 44.47 45.16 45.32 45.63 46.31 45.73 45.61 46.20 46.03 46.16 46.03 47.21 48.76 50.58 53.67 53.71
34.57 32.66 32.11 27.98 34.42 33.58 28.66 34.59 37.29 38.54 39.53 38.19 33.96 37.56 39.08 38.14 39.55 38.88 38.87 39.56 39.98 40.99 42.01 42.39 42.50 42.23 41.80 41.82 43.21 42.73 43.55 44.64 44.60 44.43 45.00 45.42 45.37 45.27 45.20 46.12 47.54 50.06 52.22 52.01
34.53 34.48 33.46 28.42 29.04 22.25 33.38 43.40 43.02 39.44 39.62 40.47 39.61 39.74 39.86 38.59 39.48 40.19 39.73 37.95 40.42 41.06 41.58 40.87 40.04 40.92 41.74 42.20 41.81 41.81 41.73 41.84 41.82 41.81 42.48 43.44 43.62 44.36 45.13 45.24 45.57 46.91 50.88 51.44
38.07 35.50 30.79 23.93 24.33 30.54 37.41 41.38 40.37 38.41 36.23 40.06 37.83 39.24 39.35 39.70 38.82 37.09 41.28 41.17 39.95 39.25 39.36 40.03 41.34 41.23 40.97 40.07 39.95 39.67 40.02 39.74 39.78 39.69 40.51 43.06 43.70 42.37 42.77 43.91 45.35 46.21 48.05 49.74
39.90 38.94 32.77 28.62 23.71 22.45 35.53 42.86 45.86 44.79 31.39 40.69 39.82 37.66 37.26 36.64 31.55 34.55 39.62 40.53 38.59 39.55 40.47 40.26 40.37 39.93 39.42 39.90 39.98 38.78 38.20 38.16 37.89 39.09 40.32 42.14 42.70 42.91 41.95 43.11 43.84 44.87 45.32 47.35
35.16 34.97 31.53 30.40 27.53 29.80 40.01 43.67 45.02 32.55 30.86 39.81 39.21 37.47 36.02 33.49 35.15 38.26 38.86 39.02 40.34 39.99 39.33 39.43 39.43 38.21 38.51 38.70 38.24 36.63 36.91 36.58 38.35 39.41 40.02 40.52 40.92 40.86 41.34 43.47 43.61 45.61 45.40 49.21
34.47 32.42 31.29 32.60 29.49 26.08 43.31 42.05 35.61 38.60 41.52 39.31 37.46 36.83 36.28 36.77 36.89 36.72 39.00 39.03 39.10 37.72 38.01 37.85 37.01 36.71 37.19 37.54 36.93 36.07 35.89 38.06 38.93 38.97 39.10 39.46 39.99 40.95 42.12 42.33 43.63 44.92 46.73 47.08
34.63 37.49 34.02 34.51 35.41 42.93 43.93 42.40 44.42 42.76 39.20 37.80 36.76 37.94 37.33 35.22 36.51 38.14 37.64 38.50 37.05 36.56 36.87 36.65 35.50 35.39 36.03 36.51 36.79 35.63 36.72 38.15 38.75 38.76 38.56 38.95 39.72 40.49 41.81 42.75 43.67 44.64 46.17 46.73
39.90 43.05 36.88 37.31 41.27 42.92 44.13 45.14 44.17 41.70 39.00 40.33 38.72 37.04 37.63 36.71 37.37 37.13 36.56 36.53 34.68 34.39 34.44 34.83 34.67 33.74 34.00 35.95 36.64 37.06 38.01 38.94 39.15 38.85 39.14 39.45 39.68 40.38 41.92 43.80 44.44 44.55 44.96 46.30
37.36 41.25 38.43 38.42 40.42 42.91 43.58 42.86 41.79 41.26 40.49 38.07 38.11 38.76 37.99 36.93 35.28 35.30 33.93 33.01 32.81 33.02 34.14 33.95 33.48 33.46 33.78 35.38 35.93 37.40 38.57 39.71 39.57 40.03 39.87 39.95 41.25 41.35 41.76 43.60 44.08 44.91 45.77 47.49
38.07 37.26 33.98 35.74 40.05 38.14 37.62 39.99 41.43 38.08 37.23 38.37 38.26 37.85 37.53 37.18 34.01 33.69 32.60 32.81 32.70 33.02 33.00 32.94 33.06 33.08 33.53 34.86 35.36 36.64 37.92 38.52 38.84 40.28 39.64 40.68 41.24 41.49 43.00 44.07 44.35 42.47 43.87 43.86

GFSCGP_sfc_wetblb_105.txt.gz
Wetbulb
43.69 38.68 35.14 37.90 39.72 40.90 39.47 37.79 38.01 41.10 44.06 42.29 40.83 40.76 43.79 46.41 44.24 44.17 45.20 46.02 46.66 46.92 49.05 50.06 52.09 54.74 55.24 55.54 57.83 58.46 57.75 57.29 57.81 56.23 55.49 56.63 58.13 63.33 67.32 70.14 70.93 70.62 69.51 69.34
39.11 36.20 41.66 43.09 42.71 41.67 40.39 37.67 37.53 41.07 43.41 40.90 39.45 40.08 42.76 43.27 43.47 45.59 45.94 46.04 46.80 47.40 48.90 52.35 55.17 55.49 56.36 56.42 56.21 56.83 57.88 57.75 57.54 58.44 58.81 58.54 59.44 60.46 61.56 62.66 63.00 65.78 69.13 68.96
36.10 39.97 44.73 43.09 41.04 40.40 39.36 37.84 38.15 38.64 42.10 41.72 39.39 37.51 39.78 43.92 44.30 45.21 45.32 46.15 46.87 47.57 47.95 51.12 54.11 54.96 54.29 54.49 53.58 54.43 54.39 54.88 56.04 57.15 56.65 55.51 55.05 54.50 55.02 55.84 58.75 61.17 63.85 66.57
38.26 42.84 42.52 40.82 40.80 41.14 36.10 42.16 42.27 40.93 37.64 33.05 39.33 30.18 36.28 40.18 42.19 44.33 45.52 45.47 45.93 46.78 47.54 50.40 51.81 50.96 52.01 52.45 53.58 53.72 53.44 55.05 56.16 55.39 54.74 54.08 52.94 53.07 54.80 55.95 57.65 57.70 59.28 60.80
38.26 39.96 39.99 39.32 40.73 42.57 39.57 43.70 41.74 40.81 36.61 34.13 34.86 31.65 35.63 39.22 39.98 42.14 44.28 45.30 46.94 46.61 47.20 49.53 51.44 52.63 51.13 52.03 51.37 52.16 55.91 54.54 54.53 55.16 55.53 55.04 53.77 54.23 54.12 54.82 55.68 56.50 57.53 59.09
40.79 44.88 43.02 42.11 44.24 43.37 44.05 40.03 37.56 34.85 33.08 27.80 32.95 32.61 32.34 36.51 39.09 41.55 44.65 46.60 46.76 46.52 45.53 48.28 49.08 50.00 49.16 48.69 51.22 54.23 53.75 52.88 53.54 55.09 55.26 54.12 53.47 52.75 52.31 53.47 54.83 55.57 57.38 58.42
39.74 39.82 43.08 45.41 40.49 42.87 39.54 32.91 26.57 25.98 25.74 26.46 34.43 32.13 34.20 40.61 44.91 45.59 44.92 44.60 44.82 44.97 45.18 46.09 46.93 47.33 47.61 48.44 49.13 51.17 51.40 52.18 53.30 55.46 53.80 53.73 53.61 52.88 52.81 54.15 54.26 55.50 56.58 57.31
33.94 31.84 42.00 46.05 41.77 38.48 36.70 33.32 27.02 23.47 23.31 27.06 36.15 30.46 36.39 44.37 45.68 45.48 45.39 44.52 44.99 45.41 46.63 47.38 47.85 48.18 48.25 48.04 47.81 49.40 49.52 49.44 51.16 51.59 52.13 53.14 52.75 53.55 54.27 54.37 55.90 56.04 56.42 56.04
34.43 36.75 45.10 46.89 46.43 43.87 38.01 34.12 36.69 30.41 30.42 27.60 30.46 35.77 40.64 44.33 44.68 45.79 45.64 45.55 44.13 44.60 44.61 45.08 46.05 45.60 45.50 46.03 46.54 46.40 49.00 49.34 49.65 49.78 49.97 50.73 52.08 52.64 54.85 55.77 55.30 56.56 55.82 57.34
38.55 33.15 43.42 46.28 47.36 46.02 42.52 43.31 33.08 30.46 25.13 23.51 28.79 31.58 32.88 39.90 41.55 44.13 44.56 44.77 45.10 44.85 44.47 44.22 44.65 44.85 45.02 45.01 45.32 45.98 46.44 47.10 48.08 48.63 49.48 52.36 53.06 54.60 54.87 52.57 54.20 54.75 56.00 55.92
39.21 36.22 36.88 40.41 39.53 39.49 38.29 34.95 35.77 34.28 30.24 24.65 24.54 29.21 40.89 43.39 42.64 42.75 42.27 43.40 43.06 42.81 43.17 44.02 44.74 45.93 45.84 46.30 46.63 46.76 47.13 47.05 47.29 47.51 48.28 49.27 50.37 51.42 52.63 52.97 54.40 55.29 54.32 54.79
40.98 35.96 32.15 35.33 40.22 42.01 38.96 36.63 36.39 29.75 29.61 28.16 25.52 28.48 43.50 42.23 41.05 41.74 41.48 42.15 42.72 42.74 42.92 43.54 44.73 45.59 45.41 45.21 45.62 45.36 45.96 46.07 46.75 47.02 46.74 46.43 46.90 47.72 48.51 51.07 53.33 55.09 53.77 53.79
40.50 34.94 29.96 30.72 35.54 39.25 37.50 39.12 39.44 38.34 37.80 35.32 32.05 34.07 43.52 43.14 40.98 40.71 39.97 41.36 42.80 42.88 42.95 42.72 42.96 43.18 44.02 44.37 45.28 45.48 45.50 45.33 45.89 46.22 45.16 45.02 45.27 45.82 46.23 47.50 49.46 51.66 53.47 54.22
42.96 35.29 32.65 28.78 31.82 34.85 34.09 36.90 39.04 36.13 34.87 35.51 36.02 36.65 40.91 41.93 39.89 39.87 39.97 39.81 40.43 40.85 42.08 41.91 41.79 41.74 42.83 44.03 44.56 45.36 45.27 45.20 45.31 45.70 44.87 44.06 43.86 44.33 44.85 46.04 47.53 49.81 51.29 52.26
36.87 31.48 34.03 35.17 37.69 37.76 36.25 35.74 36.00 34.90 35.96 33.29 34.10 35.61 39.34 39.05 37.26 37.99 39.22 40.25 40.15 40.09 40.65 41.03 41.19 41.03 41.51 41.66 42.11 43.70 44.13 44.58 44.81 44.86 44.86 44.81 45.48 45.70 45.76 45.70 45.87 46.54 48.13 49.77
36.29 31.06 33.05 31.63 36.45 34.73 32.96 34.83 35.46 35.70 35.98 36.96 37.26 35.85 38.37 39.85 39.14 38.62 38.30 39.01 38.70 39.41 40.66 41.16 41.82 42.16 42.02 41.18 42.36 43.22 43.20 43.30 43.75 43.00 42.92 43.97 44.27 44.77 44.93 44.95 44.82 44.62 45.43 47.13
32.99 31.12 28.29 26.16 32.33 32.28 27.47 31.85 34.05 35.99 37.15 36.26 32.00 34.49 37.17 36.64 38.17 37.74 37.29 38.20 38.50 39.30 40.47 40.96 40.81 40.19 41.01 41.30 42.12 41.14 41.24 41.61 40.74 40.46 41.20 41.99 42.09 42.10 42.41 43.68 43.83 44.07 44.96 46.02
32.96 30.18 28.53 26.06 27.74 21.10 31.49 41.29 41.05 38.00 38.47 38.06 37.71 38.05 38.50 37.30 38.85 40.60 39.97 36.81 38.70 39.77 40.12 38.71 39.75 40.27 40.60 40.86 40.34 40.06 40.14 39.69 39.45 39.36 39.89 40.93 41.29 40.57 41.76 42.80 43.34 43.93 43.56 43.92
36.33 31.59 28.90 25.23 24.25 28.81 35.71 40.02 38.80 36.45 34.67 39.34 38.65 39.02 38.29 38.32 37.18 35.51 39.85 39.27 38.70 37.98 38.14 39.08 40.08 39.70 39.18 38.97 39.48 39.23 39.14 39.02 38.97 38.86 39.22 40.01 40.50 40.10 41.35 41.03 41.61 42.54 44.23 45.44
37.69 35.34 28.68 28.18 22.45 20.86 31.93 41.53 44.78 42.81 32.16 39.08 37.73 35.58 35.38 34.94 29.77 32.04 38.02 38.03 37.42 38.57 38.15 38.17 38.23 38.48 38.75 38.59 39.43 37.80 37.02 37.39 37.08 38.12 38.93 39.92 39.99 39.71 39.78 40.40 40.05 41.57 43.43 43.20
34.35 34.38 31.34 29.42 28.06 29.11 37.08 42.37 43.40 29.57 29.53 37.72 37.05 35.00 34.25 32.61 34.47 36.91 37.29 38.16 38.33 38.41 38.47 37.40 37.80 36.74 37.28 38.16 37.62 36.20 36.42 36.08 37.83 38.68 39.22 39.62 39.89 39.72 40.29 39.97 40.41 41.22 43.20 42.97
34.05 31.91 30.45 33.19 28.73 25.42 42.12 40.64 33.22 35.65 38.31 37.17 35.76 35.67 34.57 34.48 35.08 35.82 37.51 37.03 37.14 37.59 36.48 35.94 34.90 35.56 36.63 37.14 36.50 35.51 35.26 37.38 38.31 38.67 38.88 39.46 39.66 40.47 41.35 40.22 40.56 41.57 42.53 42.69
34.15 33.56 32.84 32.74 32.26 40.22 43.05 39.44 43.00 41.06 37.22 36.55 34.60 35.07 36.03 35.94 35.61 35.87 35.13 35.83 36.06 34.22 33.88 34.37 34.58 34.71 35.56 36.22 36.44 34.88 35.91 37.62 38.22 38.49 38.97 39.49 40.59 40.15 40.71 40.34 40.53 41.32 43.06 43.01
38.36 42.48 38.09 36.88 39.93 42.56 43.76 44.41 42.05 39.07 36.36 36.45 36.76 37.27 36.89 34.81 35.57 34.98 33.95 32.98 32.80 33.34 32.83 34.07 34.06 33.38 33.67 35.11 35.70 35.72 36.94 37.72 38.03 37.76 38.37 40.65 40.08 39.97 41.02 42.20 42.48 42.55 42.58 43.17
34.88 39.98 36.53 38.40 39.96 42.35 43.31 40.86 38.29 37.34 38.35 38.21 37.92 37.15 35.65 35.17 34.58 33.62 32.82 32.92 32.79 32.91 33.75 33.56 33.02 32.88 33.15 34.49 34.90 35.95 36.83 37.70 37.16 37.84 39.14 40.98 40.65 41.04 41.78 42.86 42.68 43.26 43.64 44.01
35.68 34.55 31.78 32.17 39.32 38.50 35.83 37.17 38.20 37.10 36.97 36.98 35.67 34.98 35.44 35.22 33.41 33.33 32.60 33.14 33.11 33.28 32.92 32.45 32.48 32.67 33.14 34.10 34.28 35.80 37.20 38.09 38.12 38.33 40.08 40.94 40.97 41.30 41.63 42.33 43.03 42.17 41.34 41.16

GFSCGP_sfc_wetblb_108.txt.gz
Wetbulb
38.59 35.48 32.61 36.32 37.52 38.88 36.78 35.57 35.58 38.94 42.69 41.07 40.54 41.41 43.37 45.75 43.54 43.52 45.60 46.37 46.71 47.28 49.46 49.13 51.16 52.28 55.02 56.76 59.87 63.27 62.99 64.19 64.62 62.17 60.90 63.04 66.40 67.88 69.82 70.48 70.92 70.78 69.81 69.67
37.20 33.89 39.92 41.41 39.89 39.57 38.34 35.52 35.19 39.07 42.52 41.65 40.51 40.21 43.23 44.48 43.70 44.19 45.24 45.96 45.84 46.28 47.57 50.10 51.35 52.76 55.00 56.11 58.09 58.47 59.71 58.81 57.70 57.50 57.25 57.99 60.57 61.55 62.29 64.18 64.76 66.96 68.71 69.01
35.26 39.29 43.45 41.47 39.47 38.53 36.90 35.67 35.78 37.29 39.97 40.96 39.64 38.02 40.54 44.14 44.33 45.19 44.69 45.58 45.91 46.59 47.11 50.49 52.28 52.40 54.37 54.67 55.77 56.15 55.82 56.47 57.33 58.78 57.29 55.68 55.60 55.67 56.69 57.39 59.28 61.54 64.34 65.53
37.29 41.16 41.44 39.55 39.00 39.28 33.99 40.35 40.29 39.06 36.28 32.20 38.94 31.08 36.72 40.46 42.10 44.21 44.86 44.79 45.85 46.87 46.83 47.57 51.94 52.50 53.14 55.04 54.86 55.59 55.70 55.46 56.60 56.97 55.22 54.16 52.77 52.62 54.04 55.40 57.26 58.91 60.46 61.40
37.15 38.29 38.46 37.61 39.41 41.10 38.32 41.87 40.30 39.20 34.88 33.65 34.43 32.02 35.82 39.18 40.53 42.41 44.07 46.09 47.11 47.89 47.96 47.42 50.04 53.67 52.48 52.09 52.27 52.56 53.69 55.08 55.91 55.39 55.07 54.20 54.04 54.28 55.03 55.82 56.48 57.35 58.97 60.41
39.40 43.18 41.61 40.89 42.47 42.03 42.36 37.78 35.57 33.12 31.83 26.71 32.53 32.91 32.77 36.40 39.70 43.11 45.44 46.64 46.45 46.39 46.82 47.01 49.21 50.22 49.24 49.93 50.99 53.37 54.37 54.42 54.78 55.14 55.38 54.87 54.40 54.35 54.18 54.37 54.96 56.24 57.55 59.24
37.74 38.40 41.74 43.68 39.12 41.60 37.25 32.02 25.35 25.21 25.15 26.01 32.93 32.03 33.95 40.25 44.62 45.00 45.02 44.65 45.10 45.56 45.38 46.00 46.80 47.38 48.60 50.06 51.73 53.83 53.19 52.74 53.19 53.78 55.65 54.98 54.52 53.59 53.83 53.50 54.06 55.24 56.98 58.42
33.21 31.20 40.19 44.51 40.95 37.65 34.37 32.15 26.42 23.40 22.70 26.53 34.91 29.70 35.60 44.29 45.06 44.22 44.28 44.14 44.63 43.93 43.81 45.15 45.73 46.09 46.22 46.38 46.15 46.92 47.98 48.54 48.79 50.94 51.90 51.93 52.85 52.75 52.99 53.90 54.77 55.54 56.87 58.08
34.79 35.63 44.69 46.03 44.92 41.96 36.25 32.71 34.71 28.47 28.91 26.12 29.41 34.29 40.85 43.83 43.90 44.78 44.48 44.43 42.97 43.15 42.88 42.92 43.98 43.76 44.13 44.71 44.88 44.91 46.03 47.21 48.50 49.02 49.41 50.37 51.75 52.45 52.58 53.98 55.61 56.30 57.51 58.24
38.26 33.51 42.75 45.67 46.12 44.23 39.31 40.40 32.34 29.49 24.91 23.27 27.23 30.52 31.71 38.80 40.35 41.81 41.82 41.96 42.14 42.69 43.41 44.30 45.11 45.53 45.93 45.83 46.22 47.08 47.32 47.42 47.68 47.81 48.18 49.26 50.06 51.37 52.39 53.37 53.76 54.98 56.24 57.42
38.51 35.95 36.16 39.74 38.57 37.33 37.27 34.66 34.86 33.08 29.45 24.24 23.83 28.64 38.12 38.89 39.75 39.28 39.73 40.82 41.03 41.44 42.16 42.90 43.83 44.78 44.89 45.58 45.80 46.44 46.72 47.34 47.19 47.80 47.93 47.65 47.69 48.63 49.60 50.72 52.41 54.27 55.77 56.38
41.43 36.10 31.62 34.00 39.03 41.02 38.04 36.73 35.88 30.14 28.84 27.94 25.71 28.05 40.36 38.40 39.02 39.47 39.69 41.57 41.65 42.11 42.09 42.80 43.72 43.51 44.13 44.43 45.14 45.56 46.23 46.07 46.44 47.11 47.03 46.64 46.93 47.23 47.15 48.01 49.40 51.02 51.99 53.82
41.84 34.83 30.38 30.87 35.38 38.19 36.33 38.20 37.63 35.56 33.48 29.79 28.06 29.84 41.16 40.84 39.16 39.38 39.24 40.28 41.41 41.94 41.68 42.38 41.83 42.15 42.64 43.01 43.78 44.33 44.74 44.97 45.73 46.20 45.64 45.80 46.02 46.00 46.13 46.73 47.87 48.90 49.42 50.04
43.58 35.51 32.92 28.42 30.16 33.63 33.42 36.55 37.21 34.52 31.50 30.69 32.39 34.03 39.14 38.81 38.66 38.68 39.07 40.13 39.92 40.27 40.93 40.90 41.07 40.92 41.49 42.30 42.56 43.48 44.08 44.67 44.96 44.96 44.51 44.39 44.58 45.32 45.59 46.00 46.47 47.13 47.95 47.86
35.94 31.11 33.49 34.55 36.68 36.55 34.63 35.01 35.12 33.91 33.28 30.71 32.74 35.37 38.76 38.82 37.94 37.85 38.97 40.18 40.05 39.54 40.10 40.54 40.57 40.58 40.73 40.88 41.83 43.23 43.62 43.89 43.88 43.10 42.50 42.37 43.33 43.98 44.29 44.91 45.60 46.37 46.71 46.97
34.93 30.51 31.13 30.38 34.51 33.42 31.99 34.25 34.37 34.56 34.86 35.87 35.93 34.39 38.92 38.61 38.43 38.33 38.53 39.58 38.61 38.65 39.87 40.43 41.15 41.39 41.47 41.54 41.77 42.04 42.12 41.92 42.04 41.01 40.54 41.34 41.84 42.45 42.82 42.63 43.08 43.71 44.33 45.62
32.84 30.76 27.69 25.15 30.97 31.00 26.51 30.79 32.51 34.14 35.73 34.72 30.99 35.24 37.30 36.46 37.57 37.21 38.12 38.73 38.36 38.58 39.36 39.78 39.66 39.95 40.56 40.52 40.87 39.77 40.30 41.00 40.35 40.25 40.48 40.84 40.99 41.04 41.34 42.01 41.99 41.79 42.32 43.40
32.15 29.76 26.71 24.68 26.78 20.89 29.71 39.50 39.12 37.19 37.30 36.96 36.60 37.20 37.89 37.05 38.01 38.49 38.93 37.72 37.86 38.07 38.70 38.46 39.55 39.57 39.68 39.53 39.23 39.60 39.68 39.56 39.68 39.39 39.79 40.24 40.24 40.41 40.98 40.84 40.83 42.03 42.27 42.31
35.33 29.89 27.85 21.33 21.29 27.22 35.32 39.13 39.35 37.49 35.48 38.43 36.28 37.66 37.53 37.15 36.49 36.00 39.82 39.29 37.27 37.38 38.23 39.18 39.09 38.11 37.85 38.64 39.58 38.13 38.39 38.75 38.41 38.40 38.78 39.53 40.07 39.63 39.82 39.52 39.55 40.74 41.89 41.13
36.04 32.89 26.71 28.32 19.28 20.73 30.58 40.78 44.28 43.09 32.82 38.30 37.26 35.41 35.42 35.22 30.12 32.19 37.27 37.45 37.19 37.81 38.11 37.85 39.35 38.10 38.05 37.22 37.46 37.28 36.89 37.06 36.86 37.82 38.49 39.57 39.86 39.46 39.24 39.68 39.76 40.43 40.67 40.06
32.83 33.46 29.77 28.86 23.76 28.17 35.67 41.42 42.52 29.36 29.31 37.12 36.72 35.22 34.66 32.93 34.14 35.74 36.51 37.11 37.45 36.64 36.91 37.26 35.52 35.35 35.38 36.84 37.07 35.77 36.02 35.66 37.61 38.38 38.84 39.25 39.72 39.86 40.18 40.25 40.48 40.67 40.79 41.14
32.28 30.48 30.44 31.46 27.39 20.80 40.90 39.44 32.96 34.48 37.31 36.77 35.82 34.89 33.57 34.36 35.22 35.65 35.72 35.03 35.06 34.76 34.88 35.00 34.28 34.13 35.38 36.81 36.08 35.15 34.86 36.92 37.68 37.96 38.27 38.90 39.68 40.57 41.53 40.69 40.06 40.27 39.99 40.20
33.88 35.36 28.87 29.61 28.58 37.57 41.53 38.87 40.97 39.32 36.04 34.86 33.58 35.42 35.34 34.15 33.56 34.03 34.46 34.02 33.78 33.98 33.95 34.51 34.12 34.57 35.13 35.90 35.85 34.47 35.41 36.76 37.31 37.49 37.59 38.63 39.65 41.15 41.54 40.05 40.38 40.25 40.77 40.84
39.99 42.20 38.13 32.66 36.02 40.04 42.86 39.23 37.59 36.97 35.57 36.55 36.30 35.26 34.67 32.86 33.32 33.21 33.04 33.08 33.21 33.46 33.21 34.21 33.93 33.10 33.21 34.84 35.30 35.31 36.21 37.01 37.39 37.03 38.01 39.20 39.75 41.38 41.79 41.91 42.46 41.79 41.65 41.51
34.17 40.88 37.08 38.14 40.92 42.43 40.15 39.28 37.88 36.88 36.91 35.75 35.72 35.00 33.77 34.00 33.45 33.37 32.85 33.06 33.01 33.40 33.94 34.07 32.96 32.70 32.98 34.28 34.57 35.38 36.40 37.11 36.82 37.54 38.82 40.12 41.39 41.96 41.70 42.15 42.57 42.95 44.34 43.62
34.26 34.19 31.75 30.35 37.53 35.70 35.12 36.35 37.50 35.57 34.88 35.47 34.82 34.19 35.37 34.89 33.55 33.89 32.89 33.53 33.49 32.93 33.17 32.65 32.59 32.58 32.81 33.46 33.87 34.99 36.07 36.60 36.33 36.77 38.82 41.30 41.98 41.94 42.28 42.29 42.55 41.66 40.74 40.60

GFSCGP_sfc_wetblb_111.txt.gz
Wetbulb
43.75 40.30 38.06 41.37 43.05 43.66 43.48 40.96 40.96 43.18 45.27 44.54 44.33 45.22 47.48 50.05 52.05 50.84 51.57 52.02 53.29 54.19 56.09 57.22 56.77 58.48 60.45 64.34 67.31 70.30 70.81 71.96 71.98 71.52 71.53 72.03 71.72 72.55 72.80 73.38 73.85 73.59 73.85 73.74
40.44 37.82 42.65 43.92 44.32 42.76 42.67 41.05 41.75 43.89 45.40 44.39 44.44 44.40 47.78 49.62 49.30 50.29 50.77 51.73 53.85 54.07 54.86 56.02 56.76 58.63 61.18 65.54 67.25 70.21 71.06 71.76 71.98 71.79 70.28 71.36 72.08 72.23 73.55 74.21 75.02 75.08 74.05 72.88
40.32 42.28 44.41 43.46 43.42 41.33 42.12 41.10 41.88 41.70 44.41 46.03 44.62 42.56 44.94 47.56 48.93 49.01 49.36 51.18 51.98 52.62 53.80 54.23 55.77 58.40 61.29 64.39 66.32 68.23 69.69 70.23 69.40 68.47 65.68 65.73 66.00 66.51 67.33 67.21 67.58 68.59 69.72 69.91
43.32 46.39 44.17 43.71 42.97 43.92 40.02 44.73 43.84 42.88 41.83 39.00 44.07 38.12 44.16 46.68 45.91 47.96 49.53 49.27 49.65 51.34 53.22 54.78 56.65 57.47 59.94 62.80 63.86 64.75 65.40 66.11 66.31 66.51 66.42 68.38 65.07 63.15 63.55 64.42 64.75 65.76 66.31 66.27
41.53 43.00 42.87 42.20 43.40 45.45 42.87 46.03 44.44 44.15 42.62 41.31 41.23 39.99 43.51 44.88 44.60 47.07 48.90 50.99 51.89 52.26 52.52 53.57 54.21 58.16 59.02 60.24 60.42 62.33 62.89 63.71 64.41 65.05 66.30 63.98 64.52 63.44 63.51 63.27 65.05 66.10 66.09 66.52
44.01 46.88 46.46 45.53 46.09 46.11 46.33 43.41 42.47 42.12 42.09 36.53 41.34 40.43 40.98 42.74 44.69 47.78 50.02 50.32 50.00 51.79 51.89 53.22 54.72 56.82 57.02 58.91 60.45 61.36 62.37 63.62 64.17 64.13 64.08 65.24 65.95 64.37 62.27 63.12 62.65 62.92 63.52 64.87
41.83 43.16 46.54 46.88 44.19 46.39 44.17 41.95 36.13 34.48 34.66 34.99 39.73 39.12 42.15 44.38 47.51 48.13 48.97 49.59 49.97 50.43 51.84 52.67 54.27 55.94 57.61 58.91 60.04 61.15 61.43 58.89 60.17 60.65 61.35 61.78 61.79 62.14 62.67 63.86 62.42 63.48 62.44 63.32
37.59 34.80 43.12 47.77 46.19 44.04 43.95 42.45 37.64 30.54 32.33 35.53 39.64 37.20 42.21 47.48 47.88 48.38 49.97 50.76 50.48 49.66 50.09 50.35 51.61 52.16 53.10 53.72 54.52 55.79 56.22 56.86 57.71 58.14 58.39 59.15 60.01 59.87 60.30 61.14 60.80 60.56 60.97 62.62
37.96 37.90 46.30 47.45 48.55 47.72 43.12 41.26 42.53 38.08 36.83 37.14 38.95 41.15 46.38 47.63 47.50 48.70 48.61 48.83 48.75 49.59 50.47 50.86 51.61 51.92 52.96 53.52 54.07 54.94 55.19 55.07 55.29 55.34 56.50 56.82 57.65 58.62 59.03 60.33 61.29 60.78 61.99 61.77
43.17 37.98 44.50 46.61 48.36 47.46 46.23 45.63 39.59 40.94 32.56 30.91 36.03 38.02 40.91 44.48 45.78 46.94 46.94 47.55 48.40 49.23 49.46 49.92 50.28 50.46 51.37 52.00 52.73 53.44 53.55 53.09 53.70 54.27 54.51 54.36 54.73 55.07 55.63 55.95 56.32 57.48 59.28 60.93
44.22 42.33 40.70 44.15 42.00 42.33 42.73 42.33 41.77 41.91 39.35 34.44 32.84 37.20 45.23 46.06 46.91 46.20 46.71 47.39 47.73 48.26 48.64 49.08 49.52 50.02 50.38 50.81 50.93 51.70 51.83 51.81 52.32 52.89 53.25 53.33 53.44 53.66 54.00 54.00 54.43 55.01 55.68 56.14
43.78 41.81 38.37 39.16 43.46 44.81 43.75 41.88 43.44 39.91 36.14 38.22 38.62 38.14 45.84 46.78 46.99 47.79 47.25 47.14 47.79 48.13 48.35 48.76 49.06 49.30 49.22 49.47 49.80 50.21 50.71 50.72 51.07 51.73 51.76 51.67 52.14 52.36 52.41 52.66 53.06 53.65 53.57 54.29
46.46 39.45 33.78 36.30 41.32 43.73 41.47 42.58 42.63 41.95 41.63 38.20 36.00 38.40 45.25 45.97 46.23 47.12 47.11 47.29 47.26 47.58 47.87 48.16 48.45 48.00 48.03 48.33 48.50 48.74 49.44 49.63 50.31 50.41 50.15 50.30 50.36 50.41 50.57 50.95 51.43 51.63 51.77 52.03
48.45 40.43 36.90 36.04 37.02 40.66 39.05 41.26 42.61 41.42 37.85 37.18 38.51 40.29 42.36 44.31 45.15 45.85 46.40 47.04 46.84 46.99 46.95 47.48 47.64 47.85 48.03 48.06 47.89 47.90 48.41 49.07 49.29 48.78 48.56 48.33 48.66 48.59 48.53 48.96 49.26 49.76 50.41 50.33
44.44 38.74 39.66 39.32 39.84 39.86 39.64 40.02 40.31 39.50 39.49 36.60 38.76 40.31 44.05 46.00 46.21 45.80 46.29 46.63 46.32 46.03 46.22 46.59 46.36 46.71 47.03 46.91 47.09 47.55 47.53 47.67 47.70 46.91 46.75 46.81 47.40 47.67 47.71 47.81 48.27 48.47 48.14 48.43
42.15 37.50 38.72 35.22 37.36 37.65 36.36 38.86 39.55 39.61 39.70 39.77 40.18 39.72 46.18 45.56 45.70 44.37 45.03 45.13 44.90 44.54 44.94 45.25 45.51 45.56 45.46 45.64 45.61 45.53 45.66 45.79 46.24 45.47 45.27 46.23 46.27 46.63 46.71 46.82 46.88 47.17 47.19 47.47
40.16 38.51 36.27 31.84 35.03 35.07 32.01 36.53 38.01 38.41 39.94 40.12 36.38 41.26 44.37 43.03 43.33 44.16 44.83 44.54 44.08 43.46 43.89 44.28 44.39 44.51 44.86 44.71 44.29 43.67 44.38 45.00 44.37 44.35 44.92 45.24 45.18 45.06 45.42 45.35 45.58 45.20 45.08 46.01
39.03 37.24 35.79 31.52 33.26 25.68 36.03 43.42 42.42 40.19 40.64 41.96 41.27 41.95 42.52 42.52 43.69 44.83 45.09 44.09 43.03 43.23 43.67 43.89 43.87 43.93 44.41 43.99 43.49 44.21 43.51 43.12 43.32 43.36 43.30 43.07 42.90 42.35 42.47 43.21 43.11 43.52 43.58 43.52
41.04 38.08 32.44 30.67 29.73 32.12 36.89 41.07 40.69 39.75 38.97 42.05 41.72 41.89 42.35 43.39 44.33 43.24 44.02 43.89 43.48 43.21 43.21 42.98 43.30 43.32 42.37 41.99 42.33 41.69 41.62 41.97 41.99 41.18 41.15 40.98 41.02 40.76 41.39 41.84 41.50 42.21 42.11 41.90
39.31 39.47 35.76 31.52 27.87 26.31 37.58 41.96 44.71 43.84 36.46 42.20 42.49 41.25 40.98 42.39 39.25 42.35 43.27 43.20 42.66 42.39 42.11 40.97 41.17 40.85 40.58 39.93 40.15 39.43 39.82 40.50 40.15 39.01 38.57 40.03 40.42 40.47 40.17 40.78 41.02 41.67 41.68 40.99
34.58 35.97 32.33 31.09 30.31 33.49 39.84 42.92 44.04 34.12 36.08 42.50 42.07 41.65 41.02 39.42 40.71 42.26 42.71 41.45 41.80 41.00 40.13 40.16 39.59 38.68 38.59 39.10 39.00 38.38 38.76 37.45 37.85 39.27 39.68 39.96 40.59 40.54 41.39 41.42 41.86 42.60 42.20 41.72
32.78 31.39 30.98 32.92 30.49 27.80 43.70 43.17 38.02 41.53 42.98 42.56 41.41 40.50 40.06 40.52 40.28 39.91 39.78 39.33 39.08 37.90 37.66 37.97 37.77 37.20 37.96 39.55 38.17 35.49 35.00 38.24 38.82 39.09 39.14 39.63 40.75 42.00 42.36 42.22 42.83 42.82 41.82 41.40
34.84 39.23 36.15 36.49 36.53 44.45 45.22 43.52 44.43 44.53 42.30 40.40 40.23 39.48 38.66 38.29 37.57 37.69 37.44 36.96 35.83 35.52 35.54 36.66 35.37 35.58 37.90 36.15 36.00 34.59 36.87 37.88 38.57 39.08 39.81 41.20 43.15 43.60 43.31 43.27 42.72 43.25 43.30 42.30
41.30 42.80 39.47 39.26 41.93 43.32 41.52 40.46 42.53 42.59 40.71 40.02 39.23 38.44 38.35 36.86 36.98 35.72 35.19 34.55 33.92 34.48 34.39 35.33 35.05 33.94 33.30 35.00 35.45 36.48 36.78 37.59 37.86 38.24 40.43 42.42 41.96 42.31 44.25 44.33 44.04 43.94 44.31 43.10
40.86 42.03 40.00 39.36 42.59 40.78 41.43 41.12 39.53 38.83 39.85 38.91 38.76 38.46 37.66 36.97 35.41 34.53 33.86 33.77 34.03 34.65 34.99 34.76 34.13 33.40 33.15 34.61 35.32 36.36 36.35 36.69 36.63 37.36 39.64 40.51 42.03 42.71 43.82 44.63 43.85 44.26 45.33 45.10
41.96 40.62 39.31 38.98 44.20 43.13 39.88 38.82 39.97 39.03 38.35 38.35 37.49 37.34 38.05 36.33 34.77 34.90 33.99 34.58 34.61 34.51 35.09 34.04 33.86 32.87 32.88 33.46 33.82 34.95 35.63 35.10 35.11 36.06 38.00 41.19 41.55 43.42 43.66 44.14 44.06 42.57 40.93 40.60

GFSCGP_sfc_wetblb_114.txt.gz
Wetbulb
46.64 43.70 41.72 44.50 45.42 45.96 45.53 44.33 42.99 45.21 47.61 46.50 45.89 46.69 49.20 52.21 53.57 54.66 57.37 58.96 59.47 61.79 62.86 63.27 63.44 62.88 61.82 64.15 67.47 69.59 71.17 75.51 76.39 75.66 74.66 74.88 74.41 75.54 76.15 76.52 76.65 76.90 76.96 77.08
44.45 41.68 46.09 46.71 45.98 45.62 45.23 44.11 43.88 46.38 47.82 47.41 46.07 46.13 49.12 51.13 52.05 53.92 56.00 57.75 58.75 60.64 61.20 61.14 61.40 62.62 61.86 65.07 67.47 70.68 72.38 74.08 74.72 74.39 74.82 74.77 75.07 75.65 75.89 75.90 76.14 76.83 76.41 76.49
42.68 44.37 46.80 45.09 44.55 44.11 44.74 43.72 44.16 44.08 46.66 47.33 46.34 45.11 47.35 50.81 52.86 54.60 56.15 56.78 59.57 59.95 59.98 58.87 59.72 61.21 62.07 63.63 66.68 69.22 73.47 73.72 74.47 75.28 74.90 74.31 75.44 75.00 74.35 75.06 75.85 76.21 76.63 75.60
43.60 46.48 44.95 44.11 43.77 45.56 42.71 47.00 46.03 44.97 44.16 40.68 47.75 40.38 46.62 49.59 50.38 52.55 54.04 54.69 57.02 59.35 59.05 57.61 57.65 59.55 62.24 62.84 65.93 70.08 72.22 73.55 74.14 73.73 72.42 73.05 71.88 70.90 72.19 73.27 72.88 71.25 70.89 69.90
42.35 45.52 45.35 43.19 45.06 47.47 44.99 48.05 46.54 45.78 44.45 44.05 44.56 42.15 45.94 49.63 48.20 50.49 52.81 53.34 54.73 57.42 56.31 54.18 55.45 57.83 60.45 62.77 65.81 68.38 70.36 71.62 71.75 72.46 72.93 72.18 72.09 70.39 68.22 66.54 68.80 70.78 69.61 68.68
46.58 49.39 47.93 47.58 48.50 48.36 48.87 46.89 46.68 46.31 44.55 38.84 43.04 42.98 43.09 46.62 48.86 50.99 53.80 54.19 54.29 55.00 55.54 56.33 57.03 58.90 61.00 61.87 63.92 66.22 68.03 68.33 69.50 69.08 68.98 68.27 66.58 66.78 65.34 65.12 64.44 63.88 64.59 65.99
44.58 44.89 48.28 49.25 46.26 48.75 47.56 45.16 38.81 36.94 37.41 36.97 44.59 42.27 43.28 50.31 52.20 52.88 53.74 54.01 55.41 55.25 56.12 56.30 57.53 58.53 60.69 62.42 63.20 64.24 65.55 64.36 65.04 65.67 65.85 65.63 65.84 65.63 65.69 66.18 64.58 65.56 63.49 63.84
39.84 37.18 45.01 48.24 46.81 45.81 46.24 46.06 40.13 33.15 35.26 38.01 44.26 39.82 46.01 51.84 52.96 54.35 54.53 54.30 55.22 54.70 55.27 54.79 56.16 57.16 57.71 58.30 60.19 62.33 62.58 61.94 62.50 63.25 63.36 64.08 64.63 63.35 63.98 65.05 64.62 64.15 63.80 64.46
41.11 40.06 46.83 47.49 48.96 48.89 46.52 43.51 48.07 42.25 42.47 39.03 42.18 44.99 49.50 51.39 51.88 52.89 53.14 54.01 53.86 54.30 55.39 55.55 56.30 56.67 56.32 56.57 58.48 59.19 59.56 58.96 59.07 60.28 60.77 60.80 60.88 61.08 61.24 62.13 62.58 62.63 64.75 64.28
45.83 39.97 45.60 46.54 49.25 49.68 48.07 49.21 42.11 43.35 34.45 33.19 39.34 41.87 43.03 48.16 49.83 51.67 52.49 52.79 53.53 53.92 54.16 53.83 54.54 54.82 55.44 55.83 55.57 56.58 57.56 57.66 58.15 58.70 59.01 58.58 59.07 59.44 59.60 59.67 59.66 60.38 60.86 61.22
47.95 45.39 43.19 47.49 45.15 43.94 45.40 44.99 46.13 45.35 42.87 36.39 34.74 40.10 50.91 50.25 51.49 51.49 52.49 53.24 53.46 53.49 53.37 53.55 53.66 54.57 55.11 55.54 55.31 55.85 55.36 56.09 56.60 56.93 57.22 57.21 57.33 57.72 58.11 57.88 58.41 58.82 59.37 59.48
48.48 45.52 40.87 42.57 47.87 48.41 46.96 45.51 45.88 42.33 39.93 42.69 42.18 40.80 52.09 52.78 52.77 52.77 52.41 52.99 53.49 53.72 53.81 53.88 54.01 54.31 53.98 54.30 54.44 54.26 54.51 54.19 55.06 55.30 55.62 55.79 56.34 56.48 56.59 56.84 57.23 57.68 57.23 57.67
49.05 44.37 36.96 39.96 44.61 47.37 44.77 45.70 46.32 46.07 46.62 41.06 38.07 39.14 50.64 51.69 51.88 52.86 52.02 52.21 52.51 52.87 52.84 53.26 53.48 53.35 53.25 53.50 53.42 53.17 53.37 53.49 53.49 53.78 53.95 54.47 54.90 54.88 55.17 55.49 55.99 55.87 55.82 55.84
50.73 44.61 41.10 37.97 39.82 45.64 42.83 45.01 46.24 44.96 39.79 39.91 40.29 39.13 45.86 48.44 49.17 50.78 51.52 52.27 52.47 52.12 51.10 52.08 52.47 52.60 52.60 52.62 52.09 51.79 52.29 52.70 52.85 52.80 52.69 52.92 53.63 54.09 54.10 54.54 54.48 54.46 54.81 54.54
50.22 43.18 44.79 43.45 42.86 44.37 44.45 44.32 44.63 43.29 43.47 40.07 42.24 42.69 46.93 49.44 50.15 51.26 51.68 51.66 51.14 51.22 51.63 50.83 50.78 51.48 51.55 51.47 51.49 51.02 51.20 51.56 52.08 51.41 51.42 52.09 53.00 53.27 53.32 53.18 53.45 53.28 53.02 53.04
47.66 43.22 44.26 40.38 42.54 43.14 41.77 43.46 43.87 43.58 43.64 43.42 43.19 42.70 49.34 50.63 51.88 50.06 50.09 50.21 50.31 50.15 49.32 49.72 50.31 50.41 49.86 49.87 50.03 50.02 50.06 50.60 51.20 50.34 50.21 51.13 51.57 51.84 51.51 51.42 51.19 50.46 49.81 49.88
46.34 44.29 42.15 37.94 40.59 39.90 36.69 41.00 42.48 43.29 44.25 43.98 40.98 44.74 48.68 47.06 47.59 48.57 49.15 49.64 48.77 48.32 48.12 48.77 49.03 48.79 49.09 49.44 49.59 48.99 49.23 50.08 49.36 49.29 49.70 50.07 49.92 48.74 48.21 47.68 47.18 46.31 46.73 47.22
45.80 44.61 43.48 37.81 38.22 30.05 40.66 46.14 44.17 42.67 43.07 44.84 45.16 46.34 47.39 47.87 48.45 49.18 49.76 48.74 47.40 47.93 48.25 48.42 48.25 48.17 48.91 48.67 48.37 48.35 48.09 48.13 48.11 48.32 48.23 47.77 46.12 45.15 45.32 45.19 45.65 45.68 45.42 44.64
48.19 44.55 38.94 35.45 34.83 37.07 39.81 43.62 43.74 43.36 41.76 46.60 46.22 46.55 46.99 48.04 49.25 47.46 47.89 47.98 47.38 47.48 47.52 47.21 47.42 47.31 47.33 47.13 47.25 46.18 45.98 46.40 46.44 45.97 44.86 45.10 44.09 44.07 44.58 44.69 45.51 45.67 44.57 43.58
45.39 45.35 41.19 37.73 31.64 29.41 40.86 45.29 47.80 47.26 36.17 46.54 47.14 46.08 46.09 47.42 44.33 41.86 47.95 47.71 46.92 47.08 46.71 45.99 46.10 46.04 46.29 46.32 45.12 43.76 43.63 43.99 43.00 43.70 42.83 45.30 46.02 45.43 44.71 45.03 44.70 45.45 45.56 43.87
38.66 39.56 35.76 36.21 35.89 37.50 43.65 45.01 47.17 36.72 37.65 46.58 47.09 46.27 45.75 44.14 44.90 46.44 46.66 45.61 45.99 45.64 45.03 44.84 44.74 44.29 44.26 43.29 42.53 41.58 42.20 39.89 39.17 42.79 44.95 45.91 46.02 44.71 44.48 44.58 45.52 45.72 45.05 44.92
36.22 34.00 33.88 36.57 33.70 31.54 46.77 45.73 39.99 44.74 47.87 47.22 46.23 45.27 44.29 44.46 44.49 44.32 44.47 44.24 43.69 42.57 42.25 42.28 41.14 40.73 41.26 41.95 40.67 39.53 36.10 39.17 42.04 43.03 43.07 43.32 43.18 44.32 45.50 45.90 46.55 47.55 45.73 45.49
36.53 40.19 39.41 39.22 39.28 46.07 48.39 47.26 49.39 48.83 46.74 45.65 44.60 43.79 43.17 42.99 42.60 42.88 42.14 41.43 39.86 38.67 38.53 38.95 38.16 38.01 40.24 39.93 36.97 34.91 37.95 40.96 40.48 39.94 40.36 42.39 44.77 46.46 46.65 46.39 46.75 45.11 44.87 45.01
43.43 46.06 43.09 42.82 43.29 44.43 45.23 46.27 46.96 46.95 44.93 44.20 43.82 43.18 42.95 41.45 41.26 40.03 38.57 37.17 36.91 36.83 36.43 36.99 36.94 36.52 34.97 35.47 36.22 38.12 39.63 39.34 38.36 37.89 39.89 43.13 44.73 46.69 46.98 47.07 47.67 47.89 44.65 45.21
43.66 45.33 43.49 41.15 40.25 41.88 42.89 44.84 43.16 42.45 43.61 43.09 42.83 42.24 41.48 41.08 38.96 36.90 36.06 35.88 35.61 35.70 36.26 36.25 35.22 34.47 34.11 35.42 35.65 36.82 37.49 37.79 36.28 37.20 39.13 42.48 45.45 46.56 46.07 44.92 45.22 45.25 46.84 45.74
45.80 43.47 41.54 39.47 45.56 44.53 42.38 42.58 42.04 42.36 42.27 42.10 41.80 41.01 41.58 41.02 37.70 36.94 35.25 35.75 35.62 35.61 35.59 34.33 34.48 33.92 32.88 33.84 34.66 35.88 36.47 36.69 35.98 36.31 37.58 40.57 42.89 45.08 44.44 43.84 44.14 43.49 42.14 41.21

GFSCGP_sfc_wetblb_117.txt.gz
Wetbulb
48.13 44.81 42.88 45.17 46.72 46.81 46.35 45.73 45.08 46.90 48.45 47.10 46.76 46.80 48.46 50.86 51.84 52.55 55.42 58.07 59.25 60.95 63.97 63.42 63.62 65.47 66.39 65.24 68.27 69.31 71.32 76.29 77.36 76.08 75.25 74.92 74.32 75.29 75.35 75.97 77.59 76.33 77.08 76.57
45.30 42.71 47.16 47.95 47.63 46.12 45.85 45.14 45.49 47.82 49.02 48.14 47.01 46.19 48.89 50.10 51.01 52.54 54.40 56.26 57.44 59.95 61.29 63.55 63.21 65.59 66.20 65.70 66.78 69.56 70.91 73.37 75.53 75.61 76.65 74.61 74.26 73.46 74.25 74.85 78.21 75.80 76.57 76.63
43.92 45.62 48.03 47.16 46.24 44.95 45.36 44.92 45.22 45.30 47.47 49.47 47.54 45.45 47.55 49.57 51.02 52.44 54.33 55.36 55.93 57.75 59.84 62.74 63.75 63.74 64.24 63.08 67.60 67.71 70.06 73.73 75.55 75.96 75.03 75.30 76.15 75.35 73.76 74.05 75.04 76.31 76.40 76.13
45.32 48.38 46.59 45.98 44.95 45.98 43.14 47.40 46.50 46.09 45.14 40.64 47.57 39.65 45.53 48.20 49.39 51.00 52.69 54.09 56.15 59.37 60.40 62.64 64.14 64.37 63.21 62.66 65.98 66.57 71.34 74.56 74.72 75.51 75.80 75.18 73.39 71.44 71.59 73.46 73.79 75.61 76.69 76.62
43.56 45.23 45.43 44.55 44.95 46.95 44.73 48.60 47.38 46.57 44.87 44.49 44.50 40.85 45.22 49.00 47.49 50.03 53.15 55.70 57.56 57.72 59.84 62.53 63.64 63.20 60.72 62.58 63.75 67.47 72.24 73.78 74.92 76.05 75.34 72.90 73.45 72.06 73.72 71.99 74.92 75.38 74.70 72.48
45.88 48.77 47.39 47.57 47.42 47.63 48.82 47.44 47.46 47.07 45.19 39.00 43.17 41.00 41.81 45.33 48.19 51.16 53.65 55.22 55.58 56.42 60.85 61.64 60.35 61.34 60.88 61.94 65.17 68.91 70.96 71.83 73.14 72.89 74.02 75.10 73.84 72.41 69.07 69.72 67.28 67.08 67.10 68.17
44.85 45.80 48.92 49.66 46.19 48.03 48.19 45.77 39.07 36.66 38.05 37.13 45.11 42.93 44.55 48.54 48.59 52.75 54.42 55.96 56.54 57.13 58.04 58.83 59.52 58.83 61.72 62.06 64.39 66.41 68.53 68.90 70.33 70.19 69.56 69.19 69.22 69.04 68.76 67.84 65.45 67.13 64.17 64.39
40.79 39.40 46.54 48.98 46.84 45.97 46.58 46.01 39.94 33.74 34.58 38.40 44.22 40.27 45.94 51.23 51.87 55.79 56.41 57.02 57.45 57.84 58.82 59.40 60.50 61.93 62.91 63.89 64.64 65.44 65.43 64.09 65.62 65.78 65.50 65.50 65.84 65.67 65.99 67.03 66.46 65.74 65.52 65.98
42.25 42.08 48.29 48.65 49.28 49.15 46.48 43.50 48.23 42.20 43.26 40.33 42.07 46.54 50.66 52.98 53.39 54.61 55.33 56.31 56.37 57.55 57.98 58.32 59.26 60.33 60.57 61.08 61.26 61.82 61.51 60.81 62.08 62.14 62.84 62.92 62.88 62.81 62.56 63.06 63.65 62.32 66.56 63.91
46.83 40.70 46.39 47.40 49.11 49.25 47.74 49.64 42.16 44.77 34.64 34.16 39.78 39.77 43.96 49.24 50.99 53.54 54.24 54.99 56.07 57.00 56.98 57.15 57.45 58.00 58.59 59.14 59.54 59.92 60.26 59.26 59.22 59.56 60.74 60.03 60.96 61.20 61.00 61.31 61.48 61.92 62.39 62.18
48.13 45.19 43.95 46.24 44.70 43.86 45.49 44.68 46.34 46.52 44.98 38.47 34.82 38.20 49.64 50.54 52.42 53.53 54.70 55.40 55.79 55.84 55.98 56.38 56.91 57.49 57.65 58.26 58.45 58.23 58.19 58.02 58.20 58.40 58.30 58.62 58.59 58.56 59.61 59.74 59.79 60.26 61.50 60.60
49.19 46.05 41.74 43.11 46.92 48.70 48.31 47.01 45.51 43.25 38.74 43.67 43.09 43.57 51.01 49.06 54.31 55.09 54.80 55.33 55.87 56.09 56.15 56.30 56.40 56.52 56.63 56.73 56.74 56.58 56.79 56.71 56.74 57.05 56.83 56.94 57.74 57.68 58.80 57.76 59.21 59.01 58.46 58.85
50.30 45.21 38.94 39.66 43.37 48.99 46.05 47.43 47.92 47.43 47.18 39.20 38.20 41.62 52.39 53.87 54.07 54.81 54.23 54.46 54.86 55.25 55.55 55.83 56.10 55.76 55.55 55.78 55.39 55.49 55.77 55.53 55.84 55.66 55.96 56.29 56.46 56.46 56.97 57.10 57.76 57.76 57.42 57.27
52.39 46.66 43.39 39.28 42.08 46.87 43.77 45.84 47.07 45.59 37.40 40.34 40.06 40.12 46.99 50.46 50.70 52.42 53.78 54.53 54.93 55.00 55.00 55.02 55.25 55.30 55.40 55.00 54.76 54.56 54.53 54.70 54.56 54.52 54.47 54.62 55.38 55.72 55.82 56.27 56.33 56.24 56.47 56.22
50.47 43.96 46.38 43.61 45.84 45.39 45.21 44.95 45.53 44.03 44.06 40.39 42.75 44.39 46.91 49.61 49.41 51.49 53.27 53.96 53.80 53.77 53.47 53.73 53.55 54.17 54.37 54.13 53.96 53.79 53.59 53.49 54.06 53.40 53.30 53.64 54.46 54.95 55.07 55.16 55.12 54.55 53.53 52.89
50.09 43.98 46.23 41.87 44.91 44.45 40.85 45.49 46.98 46.54 46.25 45.75 45.15 45.57 51.64 50.60 53.09 52.55 52.28 52.37 52.14 52.11 52.42 52.50 52.80 53.20 52.78 52.61 52.52 52.63 52.57 52.77 53.01 52.55 52.11 53.23 53.59 53.71 53.48 52.51 51.91 51.22 51.24 51.32
47.24 45.91 43.68 39.09 43.91 43.34 39.18 44.48 45.30 45.82 46.26 45.74 42.51 46.83 51.45 50.43 50.71 51.45 51.57 51.51 51.14 51.47 50.97 51.58 51.92 51.82 51.98 51.80 51.97 50.95 51.29 51.87 51.41 51.70 52.19 52.58 52.44 50.68 49.77 49.60 49.10 48.24 48.74 49.36
46.85 46.19 45.23 39.19 42.58 33.53 43.51 47.44 46.40 45.70 46.25 46.75 47.65 48.23 49.40 50.03 51.34 51.57 52.09 50.34 50.56 50.63 50.75 50.96 51.03 50.81 50.88 50.97 50.90 51.16 50.65 50.30 50.43 50.82 51.03 50.45 49.49 48.73 48.43 47.75 47.25 47.43 46.78 46.74
50.71 46.85 42.16 38.36 37.99 40.76 42.27 44.80 43.78 44.25 43.81 47.87 46.88 47.57 48.94 50.13 49.24 49.25 50.58 50.50 49.87 49.77 50.01 49.96 50.01 49.82 49.81 49.87 50.39 49.28 48.62 49.24 48.78 48.19 48.30 48.49 48.07 47.02 46.56 45.88 46.52 46.96 46.61 47.05
48.58 49.14 44.24 41.25 35.84 32.39 43.19 47.59 50.98 49.30 38.32 48.41 47.49 46.29 46.40 48.76 41.72 43.56 49.01 49.56 48.92 49.27 48.96 48.51 48.48 48.73 48.86 49.26 48.17 46.33 45.49 45.40 45.00 46.36 45.22 45.20 47.12 47.13 46.28 46.38 46.65 47.24 47.74 48.25
42.04 42.76 39.87 39.44 37.99 40.66 46.61 48.13 49.34 39.19 38.29 47.32 47.40 46.93 47.19 45.72 45.64 48.15 48.76 48.25 48.77 48.11 47.20 47.16 46.98 46.24 46.58 45.25 44.05 42.79 42.80 42.94 43.57 43.55 44.83 46.71 47.27 48.16 47.86 47.35 46.56 48.93 48.08 45.91
39.75 37.79 39.06 40.70 36.65 33.78 48.76 47.24 41.96 44.71 48.00 47.68 47.30 47.43 46.38 46.67 46.77 46.57 46.84 46.21 45.90 44.87 44.62 44.49 43.53 42.90 42.73 42.62 41.30 40.55 40.11 40.30 41.88 44.00 44.63 45.59 47.03 46.09 45.37 46.98 48.39 48.44 49.04 47.91
38.59 42.83 41.27 41.25 40.49 48.04 49.64 47.86 49.18 48.84 46.58 47.32 46.95 46.32 45.91 45.05 44.18 44.51 43.94 43.93 43.05 41.70 40.69 40.73 39.65 39.27 40.44 40.07 39.38 35.93 37.49 41.25 42.57 42.66 44.13 45.49 45.73 45.22 47.19 48.32 46.76 45.44 48.76 48.76
44.81 46.39 42.18 43.53 43.37 44.51 46.73 48.12 48.50 48.89 47.12 46.69 46.07 45.28 44.69 43.13 42.82 42.10 42.08 40.26 39.09 38.21 37.43 37.94 37.59 36.77 35.92 36.44 36.83 37.30 39.04 40.09 41.46 41.78 43.37 43.43 43.37 44.92 47.76 47.88 46.96 45.18 44.83 45.61
44.75 46.38 42.03 40.72 43.48 45.36 46.72 47.61 47.24 46.56 46.19 45.09 45.07 44.68 43.73 42.99 41.72 41.04 39.05 37.32 36.74 36.33 36.41 36.22 34.99 34.57 34.40 35.63 35.69 38.06 38.80 40.04 40.11 40.77 40.74 41.41 44.24 45.50 46.81 46.43 45.35 45.35 46.75 45.96
47.57 45.43 43.19 41.35 46.13 45.86 44.70 47.01 47.05 44.95 44.13 44.54 44.19 43.59 43.99 43.42 41.33 40.34 37.66 36.92 35.79 35.02 34.58 34.84 35.10 34.15 33.80 33.95 34.91 35.82 36.04 36.36 36.86 37.05 38.00 39.24 41.39 44.68 45.48 45.62 44.94 43.80 42.14 41.86

GFSCGP_sfc_wetblb_120.txt.gz
Wetbulb
50.52 44.12 41.62 43.96 45.65 45.95 44.99 44.55 44.43 46.28 48.04 46.83 46.23 46.18 47.83 50.22 50.65 50.43 51.84 54.30 55.32 58.80 62.32 65.02 65.11 65.10 65.98 67.12 65.84 66.45 68.09 68.92 71.16 67.50 72.42 73.15 73.99 76.05 76.32 76.90 78.13 76.26 75.89 76.30
45.77 41.49 45.45 46.80 46.89 45.62 44.74 43.32 43.87 47.10 49.38 48.02 46.38 45.77 48.14 49.54 50.55 51.22 51.98 52.95 54.84 57.82 59.96 63.63 63.29 64.39 64.73 65.98 66.05 68.68 70.29 72.85 75.87 77.36 78.05 77.50 74.66 75.53 75.13 75.55 76.11 76.63 75.64 76.55
43.04 44.76 47.04 46.12 45.47 44.20 44.09 43.17 43.57 44.57 47.97 48.75 47.32 45.39 46.97 49.37 51.09 51.89 52.62 53.78 54.64 55.60 59.06 62.31 63.22 62.71 63.22 64.94 66.90 67.20 69.52 71.07 74.93 76.65 75.64 75.53 76.95 75.49 75.07 74.81 75.94 74.79 75.80 76.59
45.05 47.40 46.00 44.85 44.29 45.45 42.17 46.26 45.62 45.53 44.37 40.48 47.64 38.70 46.34 48.34 49.12 51.05 51.78 52.72 53.78 55.59 58.66 59.31 62.60 62.12 63.07 63.95 66.20 68.10 67.10 71.57 75.34 76.82 76.12 75.26 73.49 72.98 72.77 73.65 74.66 75.99 75.92 75.45
43.84 44.53 44.62 43.74 44.37 46.89 44.16 47.40 45.96 45.74 43.89 43.45 43.74 41.21 44.75 48.95 47.66 49.71 51.73 52.88 53.93 55.87 56.71 57.03 59.88 64.18 63.97 64.26 64.76 66.20 70.11 72.17 73.13 75.08 75.66 73.11 72.22 73.31 73.37 74.22 74.70 75.49 75.83 75.87
46.40 49.06 47.19 46.79 47.56 47.56 48.23 46.12 46.18 46.14 44.17 38.15 42.07 41.42 42.08 45.75 47.92 51.10 53.79 54.28 54.95 55.95 58.41 60.27 62.70 64.60 64.04 64.18 65.06 63.68 66.61 72.53 73.26 74.88 73.71 73.58 73.35 71.76 69.73 71.64 71.11 71.18 71.68 70.52
45.13 45.00 47.17 48.34 45.47 47.34 46.00 43.51 37.32 36.49 37.19 36.30 44.19 41.70 43.97 49.97 52.02 52.31 52.51 53.38 55.60 56.10 58.69 59.34 58.95 61.08 60.81 62.02 63.05 67.38 68.90 70.40 71.77 72.26 72.40 70.79 69.46 68.01 68.71 68.20 67.10 67.16 66.89 67.83
40.61 37.68 44.24 47.19 45.56 44.02 43.62 43.81 38.21 32.47 34.44 37.56 44.65 39.52 44.65 51.68 53.11 53.98 53.32 53.75 56.76 57.35 58.91 59.38 58.56 57.27 60.55 61.19 63.80 63.12 67.62 65.98 67.89 66.70 63.93 65.67 64.32 67.11 63.86 64.95 64.24 64.38 64.31 65.38
40.81 40.79 46.18 47.50 48.44 47.64 43.50 41.78 46.76 41.85 42.86 39.13 42.59 45.72 50.38 51.47 51.01 51.35 51.86 55.20 56.07 57.74 58.42 58.73 60.52 60.31 60.03 61.30 64.41 64.09 63.95 64.17 64.33 64.13 64.85 64.53 64.64 64.18 63.66 63.31 63.27 62.89 63.30 61.80
45.20 39.70 46.67 47.73 48.69 48.18 46.75 48.50 41.55 42.89 34.08 31.60 38.97 42.16 43.04 47.12 48.88 51.39 53.36 54.89 55.75 56.92 56.92 57.64 58.64 59.25 59.74 61.23 62.01 62.18 61.19 60.72 61.11 61.31 62.07 60.63 60.88 61.21 61.81 62.31 61.90 62.45 62.77 62.48
46.83 42.32 43.44 47.40 44.57 42.98 44.27 43.34 45.37 45.46 43.03 35.94 34.84 38.37 50.23 48.39 50.17 46.93 53.93 54.87 55.26 55.34 55.15 55.98 56.72 57.55 57.83 58.21 57.85 59.07 59.37 59.78 59.48 59.28 60.27 60.29 60.02 59.76 60.51 60.40 60.71 60.19 60.06 59.10
47.36 44.08 40.29 43.58 47.36 48.19 47.06 45.17 45.51 40.47 39.57 40.98 38.58 36.05 51.52 51.25 50.04 49.65 53.11 54.47 55.14 55.61 55.48 55.34 55.60 56.43 56.48 56.93 56.73 57.09 58.58 57.32 58.07 58.98 59.45 59.48 58.77 59.55 59.74 59.76 59.70 59.94 58.84 58.89
47.71 44.15 36.86 39.53 45.43 47.64 44.29 45.70 47.11 47.36 45.74 40.48 38.66 40.28 49.72 50.23 49.09 50.18 52.80 53.91 54.41 55.11 54.77 54.97 55.31 54.88 54.90 55.39 55.63 55.21 56.09 55.54 56.06 56.12 56.01 57.87 58.49 58.44 58.11 58.04 58.38 58.02 57.07 56.68
49.18 44.37 41.09 37.66 41.29 44.78 42.38 43.81 46.23 45.64 41.67 40.20 41.90 41.42 45.76 47.56 48.15 50.17 52.65 54.04 53.85 54.45 54.72 54.87 55.18 54.47 54.74 54.84 54.28 54.32 54.22 54.23 54.66 54.19 54.92 55.62 56.41 56.50 57.24 57.30 56.93 55.96 55.19 54.11
48.81 43.23 42.03 44.94 44.50 44.21 45.46 44.08 45.23 44.66 45.11 40.76 43.19 43.06 47.10 48.60 49.84 51.41 52.72 53.20 52.88 53.26 53.09 53.48 53.44 53.67 53.71 53.65 53.67 53.42 53.45 53.43 53.83 52.92 53.11 54.13 55.11 55.61 55.34 54.82 53.76 53.32 52.55 52.03
51.31 44.31 44.88 40.95 43.42 45.75 44.07 45.93 45.84 46.10 45.86 45.07 44.59 45.30 51.89 52.63 53.02 52.12 52.41 52.37 51.67 51.36 51.56 52.48 52.90 52.71 52.37 52.14 52.04 52.04 51.90 52.15 52.61 51.97 51.79 53.07 53.85 53.30 52.55 51.73 50.96 50.62 50.18 49.74
49.18 45.75 42.43 37.73 43.33 43.30 37.66 42.16 45.14 46.61 46.69 46.04 39.94 47.60 51.39 50.17 49.65 49.42 51.63 51.78 50.55 50.88 51.16 51.23 51.26 51.12 51.68 51.10 51.60 50.68 51.16 51.23 50.86 50.85 51.29 51.90 51.81 50.82 50.51 50.07 49.33 48.64 48.35 48.54
44.12 44.93 44.99 39.67 42.14 32.76 42.18 45.76 45.99 47.16 47.36 48.46 48.35 49.40 50.11 50.05 50.29 49.89 50.70 50.00 49.70 49.68 49.52 49.89 49.60 49.98 50.55 50.40 50.73 51.21 49.84 49.34 49.17 49.51 49.58 49.84 49.29 48.58 49.03 49.23 48.62 47.80 47.53 47.08
45.18 40.86 42.19 39.12 38.24 40.77 42.55 45.08 45.33 44.91 43.70 48.08 47.71 48.89 49.65 50.00 49.24 47.39 50.03 49.82 48.95 48.85 48.87 48.74 48.89 48.36 49.92 49.43 48.80 47.19 46.80 47.02 47.22 47.39 47.25 47.16 46.82 46.81 48.19 47.14 47.62 48.02 47.89 47.38
44.40 45.63 44.35 41.49 35.91 33.04 42.75 48.14 50.86 49.59 39.18 49.13 48.70 47.75 46.61 48.84 42.96 44.03 48.66 48.98 48.56 48.62 47.90 46.51 46.81 47.15 48.11 46.05 45.85 44.15 43.97 44.11 44.01 44.52 44.66 45.65 46.73 46.90 46.67 47.46 47.48 48.04 48.07 47.19
38.56 43.74 40.97 39.66 38.46 40.35 46.69 49.32 50.82 39.09 38.25 48.21 48.51 48.23 46.78 44.25 45.30 47.58 48.12 47.74 47.57 46.62 45.76 45.58 44.87 44.13 43.49 43.58 43.00 41.69 41.65 41.30 41.86 43.25 44.11 45.35 46.23 46.36 46.33 47.71 47.74 45.84 46.42 47.67
39.30 39.62 40.18 42.39 37.55 33.52 48.77 47.83 43.17 45.69 47.75 47.66 47.51 47.39 46.01 46.00 45.86 45.60 45.59 45.03 44.30 43.10 42.43 42.15 41.04 40.52 41.19 41.15 39.63 38.92 38.33 39.83 41.52 42.45 43.29 44.76 45.68 45.81 46.39 46.50 46.14 47.96 47.00 46.30
38.71 43.65 42.18 43.23 40.53 48.72 50.37 48.50 50.47 49.84 47.13 46.25 45.51 45.86 45.34 43.47 42.83 43.16 42.46 41.51 40.81 39.72 38.91 38.77 37.81 38.02 38.40 37.98 37.62 36.08 37.08 39.19 40.29 41.62 42.91 43.76 44.54 45.27 46.57 46.07 45.96 45.06 45.49 45.27
45.50 48.40 42.58 43.03 43.54 45.82 47.22 48.44 48.29 48.04 46.23 46.04 45.50 44.55 44.09 41.71 41.73 40.63 39.43 38.15 37.39 37.06 36.39 36.76 35.97 34.71 34.20 35.69 35.79 36.25 38.38 39.34 39.64 40.15 41.51 42.56 42.88 44.08 46.46 46.69 45.84 45.42 44.94 44.86
45.81 46.81 42.84 41.50 43.57 44.66 45.76 46.67 46.40 45.75 45.81 44.77 44.75 44.17 43.23 41.78 40.07 39.01 37.18 35.82 35.27 34.81 34.59 34.71 33.98 33.34 33.09 34.47 35.60 36.80 36.00 35.98 35.92 37.30 39.29 40.04 41.11 42.18 45.64 45.64 45.79 45.48 46.62 45.96
46.84 44.39 41.73 39.56 45.76 44.71 43.64 46.29 46.56 44.70 44.15 44.65 43.70 42.83 42.94 41.69 39.50 38.80 36.12 35.55 34.34 33.36 33.54 33.58 33.23 33.37 33.17 34.93 34.10 35.28 35.42 34.51 34.12 34.38 36.81 37.04 38.56 41.03 43.86 45.39 45.82 44.16 42.18 41.36

GFSCGP_sfc_wetblb_123.txt.gz
Wetbulb
48.58 43.33 39.40 42.20 42.93 42.44 42.15 40.22 38.87 41.74 44.68 42.41 41.63 41.20 43.70 46.24 46.14 45.50 46.14 47.32 48.31 48.94 52.71 61.45 61.85 61.38 61.77 59.82 61.59 62.68 63.11 64.07 66.58 66.21 64.27 63.78 63.46 66.59 67.88 73.69 74.72 74.61 74.36 73.18
45.06 40.27 45.18 46.34 45.44 42.56 41.53 39.82 39.50 42.94 45.53 42.76 41.31 41.34 44.11 45.25 45.46 46.52 46.70 47.01 47.21 48.43 50.39 59.65 59.83 62.15 59.91 59.27 60.35 62.15 63.89 65.84 65.27 65.94 65.34 62.55 62.19 67.27 69.63 73.69 72.63 74.00 73.17 69.31
41.63 44.11 48.18 44.93 42.94 41.36 40.57 39.26 39.89 40.03 44.43 45.23 42.92 39.63 42.57 46.05 46.41 46.81 47.18 47.69 48.20 48.38 49.60 52.22 60.89 60.36 60.69 58.30 61.10 62.77 63.65 66.17 62.53 63.52 63.02 62.19 61.23 65.62 61.04 70.64 72.27 71.80 72.24 71.18
43.90 47.48 45.48 42.80 41.30 41.96 37.79 43.92 43.37 42.52 39.86 34.47 42.32 32.46 40.49 44.39 45.12 46.17 46.50 45.97 47.10 48.62 49.92 52.54 58.58 58.31 58.54 58.90 61.60 62.19 62.51 66.11 67.27 69.01 66.47 63.92 66.40 67.38 69.21 69.65 71.30 71.16 68.50 64.09
41.96 44.44 43.77 40.93 41.43 43.67 40.96 45.13 42.83 42.32 38.36 35.92 38.48 33.46 37.62 43.16 43.63 44.96 49.12 50.83 50.98 48.06 49.09 52.78 59.09 60.11 60.26 60.80 61.74 62.68 66.60 68.38 70.06 69.52 69.90 68.49 67.57 67.97 69.25 69.21 68.08 69.04 71.42 71.58
45.14 48.86 45.95 44.08 45.38 45.03 45.78 42.80 41.39 40.32 36.35 30.09 36.26 35.48 35.71 39.02 43.15 47.32 50.40 49.95 52.35 52.24 53.80 55.35 56.59 60.11 57.07 58.34 58.69 58.66 66.60 67.56 69.07 70.56 70.03 68.65 65.62 65.51 63.66 65.49 65.50 67.66 67.97 67.21
43.57 43.73 46.37 46.65 42.44 44.67 42.43 36.92 28.60 26.89 28.09 29.28 39.03 36.84 38.23 45.29 49.29 49.95 50.10 49.85 50.82 52.64 52.70 53.37 54.68 55.91 57.56 58.02 61.52 61.34 62.19 65.35 63.55 62.06 62.09 60.77 62.33 63.12 61.30 61.22 61.67 61.57 62.58 62.54
36.47 35.25 42.93 46.59 43.22 40.23 39.84 37.84 29.50 24.51 27.73 32.70 41.25 34.97 38.02 48.73 50.11 51.04 51.11 51.43 52.79 52.10 52.69 53.26 55.78 57.03 58.02 58.60 60.12 61.59 61.73 60.38 60.03 59.36 58.64 58.99 59.30 59.30 58.54 57.74 58.73 58.72 57.89 58.94
37.19 37.10 46.51 46.59 45.96 44.37 40.26 37.04 39.91 34.31 37.92 33.07 36.11 41.94 46.81 48.75 47.87 48.97 50.20 51.83 52.15 54.38 55.15 55.90 56.15 56.46 56.96 56.88 57.32 57.80 57.67 56.79 56.66 57.59 57.39 56.71 56.23 56.60 56.77 56.79 57.24 57.58 58.13 58.20
42.85 37.00 45.43 45.30 45.42 44.95 42.67 43.32 35.40 33.40 28.55 25.91 33.43 38.93 39.70 43.07 43.73 46.60 48.64 50.12 51.50 52.75 53.47 54.07 54.95 55.27 56.36 57.06 57.44 57.29 56.69 57.21 55.34 54.25 54.85 54.32 53.75 54.28 54.37 54.22 54.18 53.80 54.06 54.25
45.57 40.29 40.93 44.76 42.78 39.73 39.62 38.65 38.86 38.15 36.39 28.02 27.68 35.53 46.24 47.49 49.21 46.56 49.36 50.52 49.91 49.81 50.42 51.58 52.97 53.33 52.71 54.30 55.07 55.52 55.26 53.78 53.38 53.09 51.91 52.14 52.44 53.05 53.33 53.23 53.37 53.69 53.73 54.09
45.66 41.12 35.86 38.32 45.23 47.95 43.56 40.44 40.76 33.65 33.88 37.49 33.68 33.95 47.43 48.34 48.60 49.41 52.23 52.00 49.93 49.81 49.92 50.43 50.76 51.01 50.95 50.36 50.76 51.92 51.92 51.55 51.35 51.74 52.46 51.30 51.64 52.21 52.17 52.19 52.38 53.13 52.06 52.71
45.10 39.96 34.01 35.88 41.35 45.63 40.70 42.67 42.60 42.89 40.05 36.20 33.33 35.72 48.81 49.23 48.53 50.11 50.67 50.88 51.33 50.46 49.22 49.16 49.16 48.94 49.22 49.72 50.39 49.43 49.55 49.47 49.73 50.48 49.80 50.55 50.69 49.68 49.84 51.02 51.40 51.66 50.58 49.92
47.79 40.55 37.61 32.30 37.99 41.67 39.30 41.98 43.56 40.31 35.08 37.13 37.85 40.08 44.82 46.21 47.98 49.76 50.66 52.85 50.26 51.04 50.09 49.20 48.69 47.78 48.48 49.32 49.42 49.40 49.29 50.11 49.41 49.14 48.60 48.79 48.59 49.19 49.40 49.48 48.96 48.79 48.78 48.12
45.03 39.64 41.02 42.58 43.52 43.87 42.44 41.74 43.77 40.82 41.19 37.22 39.78 40.88 43.27 44.86 47.03 49.42 51.18 51.28 50.26 49.31 49.16 48.82 47.89 47.15 47.47 47.64 47.71 48.46 48.18 48.52 48.64 48.62 48.06 47.83 48.33 48.99 48.14 47.56 47.05 47.11 46.85 46.83
46.35 39.22 40.00 39.53 42.53 43.55 41.62 43.60 44.84 43.89 43.39 43.43 42.17 41.66 46.94 47.85 49.14 49.74 50.94 49.52 48.37 48.96 48.96 49.05 48.13 47.76 46.93 46.73 46.54 47.23 47.10 47.08 47.30 47.08 46.99 48.48 48.02 47.63 46.46 45.92 45.36 45.02 44.85 44.56
42.31 42.15 38.08 33.91 40.88 40.78 37.65 41.89 43.18 44.30 45.39 43.05 40.29 44.01 47.61 47.14 46.71 46.86 48.85 49.19 47.47 47.20 46.91 45.90 45.93 45.70 45.43 44.97 46.18 44.86 44.77 45.51 45.34 45.75 47.40 47.49 46.23 45.52 44.82 45.29 44.82 43.91 42.85 42.82
43.07 41.59 37.35 35.12 39.15 31.55 40.71 46.64 47.18 45.39 46.12 47.31 47.07 46.44 45.53 44.50 45.11 46.13 46.80 45.48 44.58 44.41 43.70 43.40 43.27 43.28 44.46 43.95 43.66 43.34 44.01 43.95 44.32 44.15 44.64 44.71 44.06 43.89 44.02 43.82 43.29 43.04 42.86 42.86
44.51 43.05 37.80 34.45 33.50 38.87 41.70 44.47 43.56 41.39 41.38 47.57 44.74 44.28 44.32 45.04 44.26 42.66 45.89 45.19 43.52 42.65 42.14 41.68 42.56 42.86 41.70 41.32 41.57 41.61 41.35 41.58 42.29 41.96 41.98 42.99 43.33 43.41 43.61 42.87 42.64 42.55 42.83 43.45
44.13 43.22 38.57 36.42 31.99 30.31 40.22 46.05 49.18 46.32 35.67 44.96 44.80 44.48 44.15 44.64 36.53 37.66 42.65 42.95 41.80 41.59 40.58 39.89 41.00 40.33 39.35 39.43 39.53 38.97 39.20 40.03 38.88 40.65 40.95 42.44 44.40 44.33 44.33 44.08 42.30 42.84 43.44 45.21
35.68 37.95 36.11 35.81 32.71 37.69 44.84 48.21 49.69 34.74 37.28 44.45 43.33 42.68 41.81 39.05 39.41 40.52 41.57 40.19 39.86 38.83 38.35 38.38 37.96 36.70 37.12 37.21 37.48 36.80 37.10 37.01 38.45 39.72 40.96 42.83 44.16 44.42 43.97 41.83 44.20 45.32 45.98 45.91
35.24 35.10 35.37 35.38 32.14 30.72 47.66 45.88 39.39 41.56 43.54 43.28 41.59 40.33 39.11 39.16 39.74 38.60 37.84 37.29 36.61 35.93 36.47 36.57 35.54 35.92 36.93 35.87 35.52 34.62 35.84 37.37 38.43 39.56 40.87 42.51 43.38 43.69 43.06 44.12 45.22 45.79 45.00 44.00
37.72 41.18 37.89 38.78 38.27 43.56 44.98 43.56 45.11 43.79 40.41 40.66 39.77 39.72 39.49 37.96 36.61 36.16 35.06 34.77 34.65 35.10 35.26 35.97 34.80 34.18 34.54 35.01 35.43 34.31 36.04 37.23 37.36 38.00 39.32 40.81 41.84 41.56 42.77 43.17 45.11 44.77 45.11 45.04
43.68 45.50 40.37 40.30 41.49 41.44 42.11 43.80 43.36 42.27 40.78 41.17 40.80 39.19 38.37 35.77 35.85 34.21 33.84 33.64 33.27 33.47 33.37 33.91 32.81 32.03 31.93 33.80 35.10 36.04 35.64 35.43 35.26 35.33 36.59 39.14 38.92 38.81 39.36 42.94 44.82 44.89 44.97 44.84
43.21 43.66 40.40 39.39 40.75 41.15 41.95 41.85 41.46 41.19 41.73 41.07 40.53 39.38 37.50 36.14 34.33 33.53 32.80 33.01 32.85 32.62 32.85 32.84 32.01 32.17 32.31 33.86 34.11 35.95 35.47 35.26 33.91 34.51 35.61 36.28 37.06 36.49 38.17 40.55 44.02 44.94 46.29 45.87
43.61 40.83 37.89 36.60 41.00 39.91 40.58 42.09 42.43 40.95 40.28 40.15 38.84 37.53 37.68 36.05 33.96 33.06 32.56 32.87 32.70 32.52 32.68 32.43 32.51 32.72 32.94 33.87 34.66 36.32 36.43 36.30 34.81 34.17 34.51 35.54 35.76 36.49 38.46 40.00 42.48 42.89 41.83 41.48

GFSCGP_sfc_wetblb_129.txt.gz
Wetbulb
43.87 38.90 35.37 38.59 39.56 40.76 39.74 36.99 35.27 37.23 40.91 38.50 36.36 36.54 39.27 41.52 42.20 43.13 44.26 44.19 44.68 58.26 61.50 62.55 63.14 63.98 60.86 61.37 62.03 61.36 64.25 65.73 67.57 66.93 65.48 64.26 64.37 65.89 66.82 67.05 67.94 67.00 66.37 67.33
40.57 36.81 41.97 43.94 43.08 41.27 40.10 37.38 34.70 38.66 41.37 37.60 37.15 37.17 39.68 40.39 40.85 42.66 44.90 45.12 44.47 45.19 52.80 61.37 62.37 61.46 58.69 60.47 61.30 62.21 63.08 64.05 66.74 67.10 63.87 63.54 63.21 64.25 65.06 65.09 66.02 66.18 65.71 65.07
39.32 41.79 45.79 43.44 41.73 39.85 39.08 36.86 35.45 36.18 39.82 39.37 37.44 35.82 37.50 41.34 41.13 42.69 43.52 45.23 46.05 45.29 47.20 58.23 59.12 58.00 59.00 59.06 59.96 61.97 62.47 63.23 64.56 63.54 61.20 61.01 62.13 61.04 61.34 61.40 63.56 65.14 66.14 66.03
41.41 45.75 43.81 41.80 40.53 41.49 36.35 41.75 40.52 38.97 35.84 29.67 37.29 28.09 34.99 38.53 40.49 41.99 42.34 42.45 44.58 45.11 46.02 55.86 57.82 56.46 57.66 59.15 60.43 60.98 61.16 61.63 62.29 61.64 59.62 58.77 59.27 59.62 60.49 59.58 63.05 64.89 66.56 68.11
39.71 41.93 41.87 40.54 41.19 43.64 39.47 44.55 41.35 40.58 35.52 32.00 33.16 30.58 34.46 37.90 39.02 42.07 44.86 45.71 43.97 45.02 44.74 50.79 56.07 57.71 58.34 56.50 57.50 60.96 62.67 61.97 61.28 61.24 60.42 59.30 57.92 60.11 61.55 59.35 59.15 60.34 64.76 64.68
42.67 47.35 45.33 43.73 45.77 45.49 45.40 41.93 40.24 38.48 33.02 25.61 31.64 32.10 31.90 34.61 38.57 42.26 46.02 47.22 49.04 50.57 51.66 50.44 53.32 55.64 55.28 60.38 63.15 62.85 62.05 62.50 62.30 62.56 61.03 59.38 59.72 60.60 61.16 60.38 60.61 62.34 63.63 61.53
41.08 42.75 45.89 47.04 42.64 45.17 43.06 36.99 26.52 23.25 23.02 23.93 33.48 31.45 32.15 42.74 45.46 44.70 45.19 47.91 51.41 52.29 53.18 55.17 55.63 55.12 57.69 59.54 58.81 58.65 57.78 56.73 57.33 57.34 57.62 57.21 56.35 56.31 55.81 56.33 58.98 58.11 58.29 58.99
35.61 33.27 42.56 46.23 42.92 38.67 39.84 34.85 25.15 20.95 21.76 26.23 34.94 29.24 36.27 45.41 47.40 49.64 50.87 51.47 52.15 52.55 53.17 53.44 53.76 55.33 56.05 55.87 55.96 55.48 54.54 53.76 54.43 54.57 54.43 54.74 54.58 54.77 54.75 54.56 55.45 55.07 55.41 55.15
35.98 36.12 45.58 46.15 46.15 44.93 39.77 34.61 36.85 31.71 31.85 29.15 35.16 39.53 43.40 47.14 46.79 48.39 49.35 50.69 51.04 51.67 52.40 52.56 53.11 53.30 53.49 53.18 53.31 53.63 53.41 53.21 54.06 53.78 54.34 53.91 54.34 54.48 54.54 54.46 54.60 54.77 54.30 56.06
41.18 33.06 42.62 45.27 46.79 46.02 41.29 40.99 32.12 31.06 24.98 23.28 33.37 35.63 35.91 41.84 44.24 46.55 47.30 48.54 49.91 51.54 51.99 52.22 52.51 52.62 52.90 52.48 52.05 52.03 52.18 52.33 52.17 52.55 52.70 53.14 53.28 53.71 55.04 53.93 53.24 53.79 53.65 52.40
43.52 38.23 38.14 42.92 40.48 38.45 39.56 36.49 36.12 35.07 32.34 26.86 27.39 34.51 44.03 43.75 44.36 45.65 46.06 46.84 47.53 48.32 48.61 49.08 49.34 48.89 48.90 48.10 46.79 46.80 47.83 48.79 48.76 49.62 49.42 49.90 50.08 51.60 51.63 50.92 50.21 49.51 49.44 48.74
44.28 38.49 33.48 37.44 42.59 44.49 40.84 36.11 35.08 29.88 31.43 32.85 30.81 33.92 45.55 45.70 46.13 47.20 47.19 47.47 47.17 47.07 45.50 45.23 45.28 45.58 45.74 45.46 45.74 45.69 46.12 46.48 46.32 47.60 47.60 47.49 48.53 49.39 48.68 48.58 48.13 47.87 46.85 46.96
44.23 39.63 30.24 34.00 39.15 42.48 39.53 40.09 37.33 37.33 37.14 33.16 29.00 34.59 45.95 47.66 47.21 48.59 46.60 46.80 46.30 44.73 44.71 44.48 45.07 44.32 44.44 44.56 44.87 44.58 44.60 44.72 45.26 46.27 46.18 46.81 46.52 46.47 46.04 46.04 45.87 46.04 45.47 44.88
46.95 39.90 32.52 29.08 35.27 38.08 37.57 39.19 40.68 38.14 32.30 33.70 33.26 38.76 44.69 45.51 45.87 48.05 46.44 44.36 44.41 44.71 44.69 43.47 42.60 42.12 43.35 44.14 44.15 44.27 44.06 44.43 45.08 46.10 45.35 44.62 44.20 44.45 44.67 44.62 44.34 44.25 44.38 43.37
44.80 36.14 37.55 41.30 43.46 42.93 40.67 39.68 40.45 37.70 37.82 34.42 37.87 39.47 42.85 45.02 46.00 47.39 44.89 44.33 43.87 43.59 43.07 42.39 41.81 41.57 41.85 41.65 42.34 43.00 43.35 43.57 44.21 43.98 43.03 42.46 42.78 43.16 43.78 43.87 43.60 43.60 43.50 42.89
42.34 38.28 38.15 38.23 42.24 42.71 40.77 41.26 41.90 41.34 41.95 40.86 41.63 41.64 47.72 47.04 46.90 44.92 44.31 43.37 42.03 42.09 42.16 42.19 41.28 40.90 40.41 40.62 40.77 41.41 41.48 41.93 42.57 42.10 41.64 42.51 42.47 42.87 42.50 42.37 42.31 42.32 42.43 42.38
39.29 39.02 34.65 34.09 40.82 41.12 35.31 40.40 41.18 41.79 43.02 42.73 38.01 42.22 47.14 45.12 43.76 41.73 41.27 41.21 39.67 40.45 40.25 38.88 38.44 38.38 38.36 38.67 39.55 38.69 39.58 40.81 40.24 40.57 41.70 41.97 41.72 41.98 41.51 41.62 41.55 41.00 40.81 40.95
38.77 39.81 38.07 35.18 38.01 28.49 38.58 45.59 46.33 44.20 44.22 44.90 44.97 46.56 47.04 39.51 39.57 40.07 40.67 39.25 38.48 38.19 37.04 36.62 36.21 35.87 35.97 36.56 37.25 37.84 38.64 38.28 38.70 38.45 39.24 40.17 40.34 40.74 41.18 41.22 40.32 39.95 40.05 40.35
43.52 39.11 36.49 33.67 33.65 38.29 41.57 44.42 44.25 42.48 42.20 46.52 45.38 40.02 38.83 38.88 38.28 35.50 37.95 37.72 36.55 36.09 35.32 35.71 35.62 34.40 33.74 33.82 35.02 35.73 35.93 35.89 36.53 36.56 37.30 38.74 39.22 43.03 43.77 40.28 39.32 39.86 40.73 43.93
43.00 42.60 37.89 35.34 31.65 31.84 40.35 45.63 47.25 45.37 34.85 44.28 41.16 39.46 39.90 43.21 35.97 31.70 36.30 36.55 35.30 35.23 34.91 34.30 34.24 33.40 32.38 32.13 32.94 33.41 33.89 34.32 34.52 35.92 36.52 38.07 42.18 42.97 39.57 38.88 40.00 43.29 44.50 45.03
37.93 39.28 32.92 33.56 34.04 37.77 43.61 46.66 48.16 35.79 36.20 42.85 42.27 41.88 38.55 33.86 34.30 34.15 34.85 33.83 34.02 34.11 34.15 33.54 32.29 30.93 31.01 31.88 33.20 33.74 35.31 33.11 35.41 36.97 36.18 38.30 41.11 40.78 38.83 40.04 41.80 43.10 44.88 45.19
34.63 34.66 34.75 34.60 33.33 32.13 47.34 45.90 38.44 39.52 39.81 38.68 37.68 36.31 34.13 33.68 33.26 32.88 32.46 32.07 32.11 31.45 31.56 31.53 30.62 30.44 31.24 34.49 34.42 34.36 32.38 34.29 36.00 35.79 34.69 35.76 37.67 38.59 38.29 38.76 41.30 43.04 44.17 44.53
35.24 38.98 34.64 33.92 32.46 39.38 40.93 38.62 40.21 40.24 37.86 37.86 36.12 35.97 34.80 32.42 30.80 30.67 29.82 30.07 30.68 30.32 30.24 31.66 31.20 31.61 32.63 33.12 33.12 33.53 33.70 36.05 36.13 35.52 35.48 36.54 37.31 37.46 36.03 38.78 40.02 41.26 43.71 43.07
40.21 41.19 33.35 33.19 34.87 36.28 37.29 38.56 38.59 38.49 36.46 36.90 36.39 33.94 32.67 30.18 30.44 29.87 29.80 29.45 29.17 29.86 30.34 32.02 32.14 31.75 31.77 34.29 35.91 36.08 36.98 37.32 36.24 34.05 35.15 36.64 34.87 34.83 34.45 37.60 39.33 40.61 41.84 41.99
39.14 37.43 33.04 32.58 34.84 35.91 36.40 36.61 36.54 35.95 35.84 34.23 33.82 32.74 31.27 30.87 30.83 30.81 30.58 30.56 30.74 31.19 31.45 31.85 31.69 32.19 33.29 34.73 35.20 35.93 36.56 36.38 33.83 34.57 35.14 34.62 35.42 32.77 33.57 34.66 35.95 38.87 41.62 40.78
41.41 36.63 34.74 32.54 37.28 35.18 34.60 36.83 37.14 34.59 33.12 33.31 32.09 31.29 31.86 31.54 31.02 31.59 31.04 31.86 31.94 31.67 32.91 32.53 32.72 32.80 33.05 33.92 33.99 34.94 36.13 35.18 33.75 33.23 34.17 33.87 34.51 34.51 32.08 32.27 35.73 38.68 38.35 38.34